Location: Joplin, MO
(37.0842°N, 94.5133°W)
Time: 10:32:36
(UTC+02:00)

Tiros 1 despin weight - Visible Passes

Search period start: 14 April 2024 00:00
Search period end: 24 April 2024 00:00
Orbit: 579 x 623 km, 48.2° (Epoch: 14 April)

Date Brightness Start Highest point End Pass type
(mag) Time Alt. Az. Time Alt. Az. Time Alt. Az.
14 Apr ? 04:43:33 10° NW 04:48:00 49° NNE 04:48:38 45° NE visible
14 Apr ? 06:25:00 10° WNW 06:25:21 12° WNW 06:25:21 12° WNW visible
15 Apr ? 03:13:35 10° NW 03:17:26 26° NNE 03:21:16 10° ENE visible
15 Apr ? 04:54:32 10° NW 04:59:09 80° NE 04:59:14 79° NE visible
16 Apr ? 03:24:35 10° NW 03:28:46 34° NNE 03:32:57 10° E visible
16 Apr ? 05:05:39 10° WNW 05:09:53 58° WSW 05:09:53 58° WSW visible
17 Apr ? 03:35:33 10° NW 03:40:00 49° NNE 03:43:51 13° ESE visible
17 Apr ? 05:16:59 10° WNW 05:20:34 31° WSW 05:20:34 31° WSW visible
18 Apr ? 03:46:31 10° NW 03:51:07 81° NE 03:54:35 17° ESE visible
18 Apr ? 05:28:50 10° W 05:31:18 17° WSW 05:31:18 17° WSW visible
19 Apr ? 03:57:37 10° WNW 04:02:07 58° SW 04:05:24 18° SE visible
20 Apr ? 04:08:56 10° WNW 04:13:00 32° SW 04:16:16 14° SSE visible
21 Apr ? 04:20:46 10° W 04:23:46 17° SW 04:26:45 10° S visible
